TimePST,TemperatureF,Dew PointF,Humidity,Sea Level PressureIn,VisibilityMPH,Wind Direction,Wind SpeedMPH,Gust SpeedMPH,PrecipitationIn,Events,Conditions,WindDirDegrees,DateUTC
12:58 AM,42.8,23.2,46,30.19,10.0,WNW,2.3,-,N/A,,Clear,290,2013-02-14 08:58:00
1:58 AM,40.6,23.5,51,30.18,10.0,ENE,2.3,-,N/A,,Clear,70,2013-02-14 09:58:00
2:58 AM,41.9,24.1,49,30.17,10.0,NW,1.2,-,N/A,,Clear,310,2013-02-14 10:58:00
3:58 AM,40.1,23.5,52,30.19,10.0,WNW,3.5,-,N/A,,Clear,300,2013-02-14 11:58:00
4:58 AM,37.6,23.2,56,30.20,10.0,NNE,2.3,-,N/A,,Clear,30,2013-02-14 12:58:00
5:58 AM,38.7,23.7,55,30.21,10.0,NNW,2.3,-,N/A,,Clear,330,2013-02-14 13:58:00
6:58 AM,40.8,24.3,52,30.23,10.0,West,8.1,-,N/A,,Clear,270,2013-02-14 14:58:00
7:58 AM,41.9,25.2,52,30.27,10.0,South,4.6,-,N/A,,Clear,190,2013-02-14 15:58:00
8:58 AM,52.3,27.0,37,30.27,10.0,Calm,Calm,-,N/A,,Clear,0,2013-02-14 16:58:00
9:58 AM,57.6,25.9,30,30.26,10.0,Variable,2.3,-,N/A,,Clear,0,2013-02-14 17:58:00
10:58 AM,62.2,24.1,23,30.24,10.0,NNE,11.5,24.2,N/A,,Clear,30,2013-02-14 18:58:00
11:58 AM,63.7,23.7,22,30.23,10.0,Calm,Calm,-,N/A,,Clear,0,2013-02-14 19:58:00
12:58 PM,65.1,22.5,20,30.20,10.0,NNE,5.8,-,N/A,,Clear,20,2013-02-14 20:58:00
1:58 PM,66.0,23.0,20,30.18,10.0,NNE,8.1,-,N/A,,Clear,30,2013-02-14 21:58:00
2:58 PM,66.6,23.4,19,30.17,10.0,NE,13.8,-,N/A,,Clear,40,2013-02-14 22:58:00
3:58 PM,66.7,22.3,18,30.17,10.0,North,1.2,-,N/A,,Clear,10,2013-02-14 23:58:00
4:58 PM,64.6,24.1,21,30.17,10.0,Calm,Calm,-,N/A,,Clear,0,2013-02-15 00:58:00
5:58 PM,60.3,25.5,27,30.20,10.0,ENE,16.1,-,N/A,,Clear,60,2013-02-15 01:58:00
6:58 PM,55.8,25.9,32,30.22,10.0,ENE,11.5,-,N/A,,Clear,70,2013-02-15 02:58:00
7:58 PM,54.3,25.9,33,30.25,10.0,NE,4.6,-,N/A,,Clear,40,2013-02-15 03:58:00
8:58 PM,50.9,25.7,38,30.27,10.0,NE,5.8,-,N/A,,Clear,50,2013-02-15 04:58:00
9:58 PM,50.4,25.2,37,30.28,10.0,ENE,9.2,-,N/A,,Clear,60,2013-02-15 05:58:00
10:58 PM,48.4,24.8,40,30.30,10.0,ENE,4.6,18.4,N/A,,Clear,60,2013-02-15 06:58:00
11:58 PM,50.2,24.6,37,30.31,10.0,ENE,4.6,-,N/A,,Clear,60,2013-02-15 07:58:00